Hourly Data Report for October 03, 2000

SHERBROOKE A
QUEBEC

45°26'00.000" N
71°41'00.000" W
241.40 m
7028124
71610
YSC

Download Data

Hourly Data (October 2000)
Hourly Data Report for October 3, 2000
TIME
LST
Temp Definition
°C
Dew Point Definition
°C
Rel Hum Definition
%
Precip. Amount Definition
mm

Wind Dir Definition
10's deg

Wind Spd Definition
km/h
Visibility Definition
km
Stn Press Definition
kPa
Hmdx Definition


Wind Chill Definition


Weather Definition


00:00 6.4 5.9 97   12 7 11.3 97.89      
01:00 6.8 6.2 96   9 6 15.0 97.86      
02:00 6.7 5.7 93     0 12.9 97.79      
03:00 8.0 7.5 97     0 15.0 97.76      
04:00 10.4 8.9 90   12 4 15.0 97.69      
05:00 10.1 9.6 97   35 4 12.9 97.69      
06:00 11.2 10.2 94     0 15.0 97.73      
07:00 12.4 10.6 89     0 24.1 97.73     Mostly Cloudy
08:00 13.6 10.3 80     0 24.1 97.73     Cloudy
09:00 14.8 10.8 77     0 24.1 97.73     Cloudy
10:00 17.5 12.1 71   23 15 24.1 97.73     Cloudy
11:00 19.5 13.9 70   25 22 12.9 97.69     Mostly Cloudy
12:00 19.1 13.0 68   25 20 16.1 97.69     Mostly Cloudy
13:00 19.2 13.7 70   26 22 16.1 97.69     Mostly Cloudy
14:00 19.7 14.1 70   27 28 12.9 97.69     Cloudy
15:00 16.7 14.8 89   27 26 4.8 97.83     Rain Showers
16:00 15.8 14.8 94   27 13 8.0 97.89     Fog
17:00 15.3 14.3 94   25 6 9.7 97.99      
18:00 13.7 13.3 97   22 7 6.4 98.02      
19:00 12.8 12.3 97   27 7 9.7 98.12      
20:00 11.1 10.5 96   26 9 15.0 98.19      
21:00 8.3 7.9 97   25 4 15.0 98.26      
22:00 8.3 7.7 96   22 6 15.0 98.29      
23:00 6.7 6.3 97   28 4 15.0 98.32      

Notes on Data Quality.

Legend

  • E = Estimated
  • M = Missing
  • NA = Not Available*
  • [empty] = Indicates an unobserved value
Date modified: